Regional Weather Roundup
Issued by NWS

Home | Current Version | Previous Version | Graphics & Text | Print | Product List | Glossary On
Versions: 1 2 3 4 5 6 7 8 9 10 11 12 13 14 15 16 17 18 19 20 21 22 23 24 25 26 27 28 29 30 31 32 33 34 35 36 37 38 39 40 41 42 43 44 45 46 47 48 49 50
000
ASUS43 KBIS 210510
RWRND

NORTH DAKOTA REGIONAL WEATHER ROUNDUP
NATIONAL WEATHER SERVICE BISMARCK ND
1200 AM CDT TUE OCT 21 2014

NOTE: "FAIR" INDICATES FEW OR NO CLOUDS BELOW 12,000 FEET WITH NO
SIGNIFICANT WEATHER AND/OR OBSTRUCTIONS TO VISIBILITY.


NDZ001>003-009>011-017-210600-
NORTHWEST NORTH DAKOTA

CITY           SKY/WX    TMP DP  RH WIND       PRES   REMARKS
WILLISTON      CLEAR     58  42  55 S5        29.82R
MINOT          CLEAR     45  35  68 E7        29.88S
MINOT AFB      CLEAR     47  37  68 SE13      29.86F
$$

NDZ018>021-031>035-040>046-210600-
SOUTHWEST NORTH DAKOTA

CITY           SKY/WX    TMP DP  RH WIND       PRES   REMARKS
BISMARCK       CLEAR     53  34  48 E9        29.93F
DICKINSON      CLEAR     52  39  61 SE10      29.85S
GARRISON         N/A     46  37  71 E8        29.89F
HETTINGER ARPT CLEAR     50  38  63 E8        29.88F
$$

NDZ004>008-012>016-024-026-027-054-210600-
NORTHEAST NORTH DAKOTA

CITY           SKY/WX    TMP DP  RH WIND       PRES   REMARKS
GRAND FORKS    CLEAR     42  37  82 SE8       30.05R
GRND FRKS AFB  CLEAR     41  39  93 S8        30.05R
DEVILS LAKE    CLEAR     48  39  71 SE14      29.98S
$$

NDZ022-023-025-028>030-036>039-047>053-210600-
SOUTHEAST NORTH DAKOTA

CITY           SKY/WX    TMP DP  RH WIND       PRES   REMARKS
FARGO          CLEAR     46  36  68 SE8       30.05R
JAMESTOWN      CLEAR     48  40  73 SE10      30.00S
$$



USA.gov is the U.S. government's official web portal to all federal, state and local government web resources and services.